Location: Moscow
(55.7500°N, 37.5830°E)
Time: 16:05:46
(UTC+03:00)

Tiros 1 despin weight - Pass Details

Date: 02 December 2021
Orbit: 592 x 641 km, 48.2° (Epoch: 23 January)

Event Time Altitude Azimuth Distance (km) Brightness Sun altitude
Rises 19:37:16 0° 268° (W) 2,828 ? -29.0°
Reaches altitude 10° 19:40:26 10° 244° (WSW) 1,927 ? -29.4°
Maximum altitude 19:42:49 14° 211° (SSW) 1,654 ? -29.8°
Enters shadow 19:43:01 14° 208° (SSW) 1,656 ? -29.8°
